TVS456 LZIB-LGAV

Flight info

Callsign TVS456
Flight time N/A
Altitude 37000
Route VAMOG DCT SIRDU DCT BABIT/N0387F190 T23 TADAM/N0463F370 DCT OKTAS DCT VAL DCT TPL DCT RAXAD DCT ERANA UL737 TSL UL617 SKP UM749 ROPOX
Aircraft B738/M-SDE2E3FGHIRWXY/LB1

Departure

Time 2026-04-30 15:11
Airport M. R. Štefánik Airport (LZIB)

Arrival

Time N/A
Airport Athens Eleftherios Venizelos International Airport (LGAV)
Time Latitude Longitude Altitude Speed Heading
2026-04-30 14:35 48.17243 17.20366 427 ft 0 kts 311°
2026-04-30 14:41 48.17169 17.20270 444 ft 0 kts 311°
2026-04-30 15:05 48.17211 17.20245 436 ft 8 kts 351°
2026-04-30 15:06 48.17313 17.20383 443 ft 12 kts 75°
2026-04-30 15:06 48.17201 17.20605 443 ft 12 kts 134°
2026-04-30 15:07 48.17088 17.20783 430 ft 11 kts 133°
2026-04-30 15:07 48.16965 17.20757 437 ft 11 kts 225°
2026-04-30 15:08 48.16864 17.20596 442 ft 11 kts 225°
2026-04-30 15:08 48.16664 17.20311 443 ft 16 kts 220°
2026-04-30 15:09 48.16477 17.20071 439 ft 15 kts 220°
2026-04-30 15:09 48.16353 17.19915 442 ft 13 kts 220°
2026-04-30 15:10 48.16199 17.19802 437 ft 13 kts 158°
2026-04-30 15:11 48.16294 17.20245 435 ft 78 kts 44°
2026-04-30 15:11 48.17707 17.22332 1333 ft 166 kts 40°
2026-04-30 15:12 48.20424 17.26269 3468 ft 217 kts 41°
2026-04-30 15:13 48.21669 17.30687 4575 ft 258 kts 92°
2026-04-30 15:14 48.20245 17.41452 8568 ft 267 kts 97°
2026-04-30 15:14 48.18932 17.51781 10923 ft 315 kts 104°
2026-04-30 15:16 48.04831 17.58330 14751 ft 392 kts 166°
2026-04-30 15:17 47.93931 17.61694 17444 ft 410 kts 165°
2026-04-30 15:18 47.79522 17.65767 20478 ft 434 kts 179°
2026-04-30 15:19 47.70860 17.61499 22195 ft 445 kts 204°